Wind_Speed
11 10 10 10 10 10 10 11 11 11 11 11 11 11 10 10 10 10 10 10 10 11 10 9 8 7 7 7 8 9 9 11 8 5 9 6 7 9 10 10 10 10 10 10 8 5 3 4 4 4 2 1 1 1 3 1 1 2 1 2 3 3 3 1 3 6 8 10 10 9 7 7 9 7 5 8 12 12 13 12 10 14 15 15 18 21 19 14
11 11 11 11 11 11 11 11 11 11 11 12 12 11 10 10 11 11 9 10 11 10 9 9 9 8 7 7 7 9 9 11 9 7 8 8 9 10 10 9 9 9 10 10 7 7 3 2 1 3 3 1 2 0 2 2 1 2 2 3 3 2 1 4 5 8 8 12 12 10 8 8 9 7 6 7 10 10 11 10 10 13 13 14 17 17 14 11
11 11 11 11 11 11 11 11 11 11 11 12 11 10 10 10 10 10 9 10 12 10 9 8 8 8 7 6 7 8 9 10 8 5 7 10 11 12 10 9 9 8 9 8 6 6 5 3 4 3 3 2 2 1 2 2 1 2 3 3 2 2 4 4 5 8 10 15 14 11 9 8 8 6 7 9 10 9 8 6 7 10 10 9 11 12 10 8
12 11 12 11 11 11 11 11 11 11 12 12 11 10 10 10 10 10 9 10 13 11 9 7 7 8 7 6 7 8 8 7 3 5 9 11 12 12 10 9 9 9 8 7 5 4 5 5 4 3 3 3 2 2 3 3 2 1 1 1 1 3 4 5 5 11 12 15 13 12 11 10 8 4 7 11 9 7 6 6 7 9 10 9 9 10 9 8
12 12 12 12 11 11 11 11 11 11 11 11 10 10 10 10 10 10 10 10 12 10 8 6 5 7 7 6 7 7 7 4 1 6 10 12 11 11 10 8 10 11 8 7 5 4 3 4 4 2 2 3 3 3 5 4 2 2 3 4 5 3 5 5 8 14 12 13 13 13 11 9 8 5 4 10 8 4 5 9 11 10 10 10 10 9 9 9
13 12 12 12 12 11 11 11 11 11 10 10 10 10 9 10 10 9 9 10 11 8 7 6 4 5 6 6 7 6 5 1 4 7 11 12 11 11 9 9 10 11 9 8 6 4 2 4 4 3 2 3 5 5 7 5 1 3 4 5 7 6 6 3 7 12 11 12 12 11 10 9 11 9 8 13 10 5 6 11 12 10 11 12 11 9 9 8
13 13 13 13 12 12 11 11 11 10 10 10 9 9 9 9 9 8 8 9 8 6 5 4 3 3 4 5 6 5 5 2 7 7 11 12 11 10 9 8 9 11 8 6 4 4 4 4 4 4 3 3 6 5 9 7 3 6 5 6 8 9 8 5 7 10 10 11 10 11 12 10 12 9 9 13 10 7 8 11 13 13 12 12 10 9 9 8
14 13 14 13 13 12 12 12 11 10 10 10 9 9 9 9 9 7 6 6 6 5 5 4 2 1 2 3 5 5 3 3 7 8 10 12 12 10 9 8 8 10 7 5 3 3 3 5 6 5 3 4 5 5 9 9 6 8 6 5 6 8 10 9 10 13 13 11 11 15 14 11 12 10 9 10 8 8 8 10 11 12 12 10 9 8 8 7
14 14 14 14 13 13 12 12 11 9 8 8 8 8 8 8 7 5 4 5 6 6 5 3 2 1 1 2 4 4 0 5 7 8 10 13 13 10 9 7 9 11 6 3 4 4 2 4 5 2 1 3 5 6 9 8 5 7 9 8 9 9 8 9 11 13 12 8 11 17 13 10 9 8 9 8 5 5 6 8 7 8 10 8 7 8 8 6
15 15 15 14 14 14 13 11 9 8 8 7 6 7 7 7 6 4 4 5 6 6 5 3 2 1 2 3 5 3 4 6 7 8 11 12 12 10 7 7 9 10 8 4 3 4 3 2 3 3 2 1 4 2 3 6 8 11 14 12 13 11 7 9 11 11 11 8 10 14 11 7 5 3 5 6 4 4 5 7 5 6 8 7 6 7 8 7
15 15 15 15 15 14 14 11 8 7 7 6 5 5 6 5 4 3 4 5 5 5 3 2 1 2 3 5 5 2 6 7 7 9 10 11 11 9 7 7 7 8 9 5 3 5 6 7 7 4 1 3 6 5 4 10 14 16 17 15 13 12 9 8 9 9 8 8 8 12 11 6 7 5 5 5 5 5 5 6 6 6 6 6 6 6 6 6
15 15 16 15 15 14 14 11 8 7 6 5 4 4 4 3 3 3 3 5 5 3 1 0 1 3 6 6 1 2 7 7 7 8 9 10 10 8 6 5 5 6 7 6 3 5 6 8 7 5 1 6 8 7 8 13 15 14 14 14 9 9 10 8 6 6 6 6 5 7 7 4 6 5 4 3 4 5 6 6 5 5 5 5 5 5 5 4
15 15 16 16 15 14 13 10 7 7 5 4 3 2 2 2 2 2 3 5 5 3 2 0 2 4 5 3 1 4 9 8 6 8 9 10 10 6 4 3 4 4 5 6 5 4 5 6 6 5 4 5 7 7 9 10 10 8 9 11 7 5 6 6 4 5 7 4 2 1 2 3 3 3 3 2 3 5 6 6 5 4 4 4 4 4 3 3
16 16 16 16 15 14 13 9 6 6 5 3 2 1 2 2 1 0 3 5 5 3 2 2 3 4 4 1 1 4 10 8 5 7 9 9 9 5 2 2 4 3 4 6 6 4 4 5 4 6 4 4 7 10 11 7 6 6 7 7 5 4 2 4 3 4 5 1 4 3 1 3 3 3 3 2 1 4 6 6 4 3 3 3 3 3 3 3
16 16 16 16 15 14 13 8 6 6 4 2 2 2 3 3 2 2 1 4 5 3 2 3 3 4 3 2 1 3 7 7 6 8 9 7 8 6 3 3 4 3 5 5 5 4 4 4 4 3 2 7 9 10 9 5 4 5 5 4 3 4 4 3 3 2 3 3 4 2 2 3 4 5 4 2 1 2 5 6 4 3 3 4 3 3 2 2
17 17 17 16 15 14 12 7 5 5 3 2 2 3 3 3 3 3 2 1 3 3 3 4 2 3 3 2 2 4 5 8 8 8 6 5 6 6 7 6 4 3 5 5 4 4 3 3 3 1 5 8 9 8 6 5 4 3 3 4 5 5 5 4 3 4 2 5 3 2 3 3 4 6 5 4 1 2 4 5 4 3 1 2 3 3 2 3
17 17 16 16 15 14 11 6 5 4 4 4 4 4 3 2 1 1 1 1 2 1 1 5 4 4 2 2 3 5 7 9 9 7 4 4 5 5 6 5 3 3 5 4 4 4 3 3 2 2 4 5 6 7 7 6 5 4 3 4 5 6 7 5 3 1 1 4 2 4 5 4 5 7 6 4 3 3 3 3 4 3 1 2 2 2 3 3
17 16 16 15 14 14 10 5 4 4 4 6 6 4 4 3 4 4 4 1 3 5 3 5 5 1 1 4 4 7 10 10 9 6 4 4 4 4 5 4 3 3 4 3 2 3 3 2 1 3 3 4 5 6 6 6 8 7 5 5 6 6 7 6 4 2 3 4 6 7 7 5 6 6 5 5 4 3 3 3 3 3 2 3 2 2 3 4
17 16 16 15 14 13 9 5 4 5 6 7 4 0 1 1 2 2 6 6 1 1 1 4 5 0 3 5 6 10 11 9 8 4 4 3 3 4 4 4 3 3 3 3 2 3 3 1 1 4 4 5 7 5 3 6 9 8 7 7 7 6 6 6 5 2 2 4 6 5 6 6 6 5 5 5 4 3 3 3 2 2 2 3 3 3 4 4
17 16 15 14 13 12 8 4 5 6 7 6 1 4 4 3 1 2 6 8 4 3 3 3 4 2 4 5 7 12 9 7 5 4 4 4 4 5 2 3 2 3 3 4 4 4 3 2 2 3 3 2 2 2 3 5 11 11 11 9 8 8 6 6 6 2 2 1 4 5 7 7 6 6 5 4 4 3 4 4 3 3 3 3 4 5 5 5
16 16 15 13 13 12 8 5 6 6 7 4 3 5 3 2 1 1 2 2 2 3 2 2 3 2 2 3 6 9 5 4 1 5 5 5 4 3 0 2 3 2 3 6 5 1 2 3 2 2 0 4 4 5 7 4 13 12 10 9 8 7 6 6 5 3 1 1 4 5 6 6 5 5 5 4 4 4 4 5 4 4 4 4 4 5 5 5
17 15 14 13 12 11 7 4 6 6 7 2 3 4 3 3 1 1 1 1 1 2 1 3 3 1 1 2 5 6 1 2 3 6 7 8 3 2 2 2 3 2 5 6 5 2 1 2 3 3 2 4 5 6 3 8 14 10 8 8 7 6 8 7 4 2 0 1 4 4 5 4 4 5 4 5 5 3 4 4 3 4 4 4 5 5 5 5
17 15 13 12 10 8 5 1 5 6 5 2 4 5 3 3 2 3 2 1 1 2 2 1 2 4 3 1 5 6 2 3 4 4 9 9 3 1 1 3 2 5 5 4 4 3 2 2 3 4 5 3 2 3 3 11 10 7 8 6 6 8 7 4 3 3 1 2 5 6 4 3 4 4 3 5 5 3 4 4 3 4 4 4 5 5 6 6
16 15 13 9 6 5 4 2 4 4 4 3 4 5 4 2 4 6 3 1 1 1 1 2 1 3 3 1 4 5 3 4 4 4 8 7 3 2 1 3 2 6 4 4 7 6 4 2 5 5 5 3 2 4 6 7 5 4 5 7 9 9 7 7 7 6 3 4 4 5 3 2 4 4 4 4 4 4 5 5 5 4 5 4 4 5 7 7
17 15 12 7 3 4 5 4 3 2 4 4 3 4 4 2 4 7 3 1 1 0 1 2 1 2 3 2 3 3 2 3 3 3 5 6 4 1 2 2 1 4 5 8 10 7 4 3 5 3 4 3 3 6 7 2 4 4 3 8 12 10 11 12 10 8 3 2 3 3 2 1 3 4 4 4 4 5 4 5 6 6 6 5 4 6 7 7
16 13 10 5 1 3 4 2 2 2 4 3 2 4 4 2 3 6 2 2 0 1 2 1 3 3 5 4 2 1 1 2 2 3 3 3 2 2 2 2 1 3 6 7 6 4 4 7 5 2 2 3 5 6 6 4 5 3 1 9 13 12 13 13 10 6 2 2 2 1 2 1 1 3 5 6 5 6 5 6 7 6 6 6 6 7 7 7
15 12 9 3 1 2 3 1 2 2 2 1 4 5 5 4 3 4 2 1 2 3 5 3 3 3 5 6 3 1 2 2 2 5 5 4 2 3 0 3 2 3 2 2 3 2 5 9 7 3 3 5 5 3 5 5 4 3 1 7 12 12 13 12 8 4 2 4 3 0 1 0 1 2 4 8 6 5 7 8 9 8 8 8 8 9 9 7
13 11 8 3 0 1 2 2 1 1 1 2 4 5 5 4 3 3 1 1 3 3 3 2 3 4 6 7 4 4 2 2 1 4 7 6 3 1 3 7 7 7 6 2 4 1 4 7 6 5 5 5 2 2 6 5 5 1 2 7 12 11 11 9 6 4 3 4 2 2 1 1 1 2 2 6 4 5 8 10 10 10 11 11 11 11 9 7
12 11 7 2 1 2 2 2 1 2 2 2 2 4 3 2 2 1 0 1 1 1 0 1 3 4 6 5 5 5 1 1 2 3 7 5 2 1 4 6 9 13 12 8 6 2 2 3 3 2 4 3 2 4 5 3 3 1 2 9 9 7 7 6 4 5 3 2 2 2 1 1 1 3 1 4 3 5 7 8 10 11 11 11 10 9 7 6
11 11 6 2 3 2 1 2 1 3 2 0 3 3 1 0 1 0 1 0 1 1 2 2 3 5 5 4 6 6 6 6 4 1 3 3 2 3 1 2 8 11 9 11 8 2 1 0 2 2 4 1 3 4 4 2 3 4 5 9 7 5 4 2 2 4 3 2 0 2 2 2 1 3 3 3 2 4 6 6 7 9 10 10 8 7 7 6
10 11 5 2 2 1 1 2 1 2 1 3 4 2 1 1 2 2 2 0 1 3 3 3 5 6 6 7 6 6 6 5 5 3 3 2 3 5 3 1 5 6 6 7 5 3 4 4 1 1 1 1 2 1 2 2 1 3 5 6 5 4 3 2 3 2 2 1 2 3 3 2 1 3 4 4 2 2 2 5 7 8 8 8 6 5 5 5
9 10 6 1 2 3 2 1 2 2 4 5 4 1 1 1 1 2 1 2 2 3 2 1 5 6 5 5 6 6 4 3 3 3 2 3 4 4 4 3 1 2 4 3 2 4 6 5 3 2 1 1 2 1 3 5 4 0 4 6 5 3 2 2 1 0 1 1 2 2 3 1 2 2 3 6 2 4 4 4 5 6 6 5 4 4 4 4
6 8 7 4 1 3 2 3 4 4 5 4 2 0 1 1 2 2 2 3 1 2 1 2 5 6 5 4 4 5 3 3 3 2 1 2 4 4 6 8 5 1 3 2 2 4 3 3 6 6 1 3 4 2 3 2 3 1 3 4 4 3 3 2 3 2 1 2 3 3 3 1 2 1 2 5 4 4 5 6 6 6 6 6 5 5 5 5
4 5 6 5 3 4 4 5 5 5 5 2 0 1 1 3 2 0 1 2 1 3 2 1 4 4 4 3 3 3 3 4 5 5 4 3 4 4 5 9 9 4 3 2 3 3 3 3 5 5 2 4 5 2 2 1 2 0 1 2 3 2 2 3 3 2 2 1 2 3 1 2 2 0 3 5 5 5 5 6 6 6 6 5 5 4 4 4
4 6 5 4 4 4 4 5 5 4 1 1 1 0 2 3 1 0 1 0 1 2 1 1 2 2 3 2 3 2 2 2 4 5 6 4 4 4 4 6 8 5 2 2 2 1 3 3 3 2 3 4 5 1 1 0 1 1 2 2 2 1 2 3 1 2 4 2 1 1 1 1 1 2 3 5 5 4 5 5 5 5 4 4 4 3 3 3
3 4 3 2 2 2 3 4 4 2 1 2 0 2 2 2 1 1 2 1 0 2 3 1 2 1 2 1 2 2 1 0 1 2 3 3 3 4 3 2 4 4 2 2 2 0 3 2 4 3 1 1 2 2 1 1 1 1 3 2 0 1 4 5 1 1 2 2 1 2 2 1 2 2 1 3 4 3 4 4 4 5 5 4 4 4 4 4
1 2 1 1 1 1 3 4 3 1 2 2 1 2 1 1 2 2 3 2 0 1 3 1 1 1 2 1 2 3 3 2 2 1 1 1 2 3 4 2 1 2 1 2 2 2 3 3 2 3 2 1 0 1 2 1 1 1 1 2 1 2 3 3 2 2 1 1 1 2 2 2 2 1 1 3 4 4 5 5 5 6 5 5 5 4 5 5
2 2 1 1 0 2 3 3 1 2 2 1 3 3 1 1 2 2 3 3 0 1 2 1 1 1 1 1 2 3 4 3 3 2 2 1 1 3 3 2 1 1 1 3 2 2 1 4 2 3 2 2 1 2 2 3 3 4 3 2 2 2 1 1 2 1 1 1 1 1 0 1 2 2 3 6 7 6 7 6 7 6 6 5 5 5 6 5
1 2 1 1 1 3 3 2 1 2 1 1 3 2 0 1 2 2 3 3 1 1 2 1 1 1 2 2 2 3 3 4 3 2 2 1 1 3 2 1 2 3 2 0 2 1 1 2 1 2 2 2 2 4 3 4 5 4 2 1 1 2 2 0 1 2 2 2 1 0 1 2 2 1 2 6 7 8 8 7 6 7 6 6 6 5 5 5
1 2 0 2 2 2 2 2 1 1 1 2 2 1 0 1 2 3 3 3 1 1 2 2 0 1 2 1 2 2 3 4 4 2 2 2 1 2 3 2 3 6 6 4 1 1 1 2 2 0 3 3 2 3 1 1 2 3 4 3 3 2 1 1 1 1 2 2 0 2 1 2 3 2 2 1 2 6 9 7 6 6 7 7 6 6 6 5
1 1 0 0 1 2 0 1 1 2 2 2 2 2 1 0 2 2 2 2 1 1 1 2 2 2 2 2 2 2 2 3 4 3 2 2 2 1 1 2 3 5 5 4 2 2 2 2 3 2 2 3 0 1 0 0 0 1 2 1 0 1 1 2 2 2 1 2 1 3 2 3 4 2 3 4 4 2 4 6 7 6 7 8 7 6 6 6
1 1 1 3 3 4 1 2 2 2 2 2 1 1 1 0 2 2 1 1 1 2 1 2 3 3 2 1 1 2 1 2 4 4 3 3 3 2 2 3 3 2 2 2 1 0 1 3 4 2 1 1 2 2 1 1 1 1 0 1 1 1 2 3 1 2 1 2 0 2 3 3 4 0 1 2 3 3 3 2 6 6 7 7 7 6 7 6
1 1 2 4 1 2 1 2 3 3 3 1 1 1 1 1 2 1 1 1 1 1 0 1 2 2 2 1 0 1 1 2 3 2 2 3 2 1 3 5 3 2 1 1 1 2 1 2 3 2 0 0 1 1 1 1 1 0 1 1 1 1 2 2 2 2 0 0 0 2 1 3 4 1 2 1 1 1 3 2 6 7 6 6 7 6 6 6
1 1 2 3 2 1 2 1 3 3 2 1 1 1 1 1 1 1 1 1 1 1 2 1 0 1 2 2 1 1 0 1 2 2 2 3 1 1 2 4 4 3 2 1 1 2 2 1 2 3 2 1 2 2 2 1 0 0 1 1 0 1 1 0 0 2 1 1 2 3 1 3 2 1 2 2 3 3 3 2 4 7 6 6 6 6 6 6
1 1 2 1 1 1 1 1 3 5 4 3 2 2 1 1 1 1 1 1 0 1 1 1 2 2 2 2 2 2 1 1 1 1 1 3 1 1 1 3 3 2 2 0 3 2 2 2 1 3 4 3 1 2 2 2 1 0 1 1 1 0 2 1 1 2 0 1 2 3 3 4 3 2 3 5 5 5 5 4 4 5 6 6 6 6 6 6
0 1 1 0 0 1 1 0 2 5 5 4 3 1 2 2 1 1 0 1 1 1 0 0 2 2 1 1 2 3 3 2 2 1 1 3 1 1 0 2 2 2 0 1 3 1 4 4 3 2 4 4 2 2 1 1 0 1 1 1 1 1 2 3 3 1 3 2 1 4 3 3 5 4 5 6 6 6 6 5 4 4 6 6 6 6 6 5
0 0 1 1 1 2 2 1 2 3 4 4 3 2 3 3 2 1 1 1 1 1 0 1 1 1 0 1 1 2 2 3 4 3 2 3 1 1 1 2 0 1 1 2 1 1 3 3 2 3 4 2 1 1 2 2 1 1 0 1 3 3 2 3 3 3 2 4 3 5 1 2 6 4 6 7 6 6 6 7 7 7 6 6 6 6 6 6
0 0 1 2 1 1 1 1 3 3 3 3 2 3 4 4 3 2 0 0 1 1 0 1 1 1 1 1 0 1 0 2 4 3 2 2 2 1 1 2 0 1 1 1 1 2 4 2 2 1 2 0 0 1 2 1 1 1 2 3 4 5 5 6 6 6 4 4 6 4 0 4 7 4 3 5 6 7 8 8 8 7 7 7 7 7 7 7
1 1 0 0 1 1 2 1 4 5 4 3 1 3 5 5 3 1 1 1 1 2 1 1 1 1 3 2 1 1 2 1 2 0 1 2 1 0 0 1 1 1 1 2 2 1 3 2 1 2 2 1 2 2 1 1 2 3 4 5 5 5 8 8 6 6 4 5 7 4 5 9 9 7 7 6 4 4 3 4 7 8 9 9 8 8 8 8
1 1 1 1 2 2 1 1 3 4 2 1 0 2 4 6 5 1 0 2 2 2 2 2 3 3 3 2 3 2 2 0 2 1 1 3 1 1 1 1 1 1 2 2 2 2 2 2 1 1 2 2 3 2 1 2 2 4 5 6 6 6 6 7 6 4 3 6 8 5 7 11 8 6 8 6 3 4 3 3 6 7 8 9 9 9 9 8
0 1 0 2 2 2 0 0 1 2 2 0 1 3 3 5 7 5 2 2 1 2 1 3 6 5 2 3 5 3 2 1 3 1 1 4 3 1 0 1 2 2 0 2 2 2 2 2 1 2 2 3 3 2 2 4 3 4 8 9 9 7 5 6 6 5 6 5 4 2 5 9 6 4 4 2 4 5 5 6 6 6 8 9 9 9 9 9
1 0 1 1 1 1 1 1 1 1 2 1 2 2 2 4 7 7 3 1 1 3 2 0 3 3 2 3 2 3 3 2 3 2 0 4 5 3 3 3 4 4 1 0 1 2 3 4 1 2 1 3 4 3 3 4 4 4 8 9 11 11 8 5 5 8 10 8 5 6 8 7 4 5 5 3 4 6 7 7 7 7 8 9 9 10 9 9
Wind_Direction
356 354 351 348 344 342 339 335 333 332 330 332 331 326 327 327 325 324 325 324 319 311 294 282 275 284 299 311 335 334 335 322 307 73 69 12 345 333 333 330 332 347 357 359 349 324 271 230 229 196 187 172 220 294 146 187 285 161 242 193 205 215 224 291 145 150 129 138 147 150 147 119 111 106 122 102 80 82 77 68 63 57 62 76 96 116 124 126
353 351 348 346 342 340 338 336 332 331 332 331 328 327 331 330 327 326 327 330 330 325 305 283 267 269 285 301 327 331 331 313 297 88 67 348 348 340 335 340 343 357 359 353 350 346 325 224 188 182 187 166 170 335 147 182 292 184 202 193 209 243 1 29 100 128 127 138 140 141 144 119 114 128 132 113 100 90 80 78 78 78 79 79 91 106 114 121
351 349 346 345 342 339 336 334 330 331 332 329 328 330 332 331 329 326 326 334 333 325 311 289 262 257 269 293 315 326 327 305 286 85 45 348 352 344 340 348 351 2 351 331 322 334 325 311 315 260 200 184 193 218 170 160 171 201 227 194 203 334 13 23 106 129 133 137 136 136 136 120 120 130 121 116 107 93 91 101 99 100 103 93 91 99 111 126
349 347 344 342 341 339 336 332 329 332 332 330 331 330 332 331 327 326 327 338 335 322 310 297 261 251 259 280 305 322 319 296 282 65 22 351 351 345 345 350 358 6 345 321 300 296 306 296 279 261 220 191 178 180 165 154 164 162 254 174 15 359 25 13 95 114 125 135 132 129 126 124 122 109 129 129 109 93 101 108 112 118 118 112 103 101 110 116
348 346 342 340 339 337 336 333 332 332 332 330 330 328 331 330 327 326 327 337 334 320 310 307 270 250 254 271 294 321 312 283 72 40 4 350 350 347 348 354 6 8 342 313 288 260 280 272 238 236 249 174 154 176 158 160 182 78 52 52 24 36 62 35 103 114 123 129 121 121 121 123 105 50 104 118 96 71 84 98 107 117 120 118 113 107 105 106
346 344 340 339 338 336 334 333 333 332 330 327 328 330 330 330 328 324 326 335 334 328 321 315 289 256 247 261 290 311 296 305 63 19 354 351 353 349 353 356 360 359 332 296 269 233 241 251 222 202 232 159 166 174 145 157 190 91 67 47 36 60 82 38 101 117 127 125 119 115 108 106 95 61 58 78 69 22 49 91 103 107 114 114 113 113 107 104
343 341 339 337 335 335 333 332 332 329 330 328 328 331 333 334 330 323 323 331 337 344 341 332 316 270 246 269 297 286 253 46 46 14 356 357 356 351 354 355 344 341 328 300 259 207 206 214 208 207 199 145 175 174 141 147 107 103 97 58 43 53 69 45 69 91 94 98 100 98 90 85 92 83 64 68 60 22 35 76 96 102 105 105 106 105 99 94
343 340 337 335 334 333 331 331 330 324 325 329 329 333 338 339 334 323 314 329 345 351 347 348 341 275 249 290 301 270 232 35 20 4 360 359 357 350 351 357 346 335 329 327 305 245 216 200 211 219 191 165 183 168 142 137 99 102 108 84 60 54 64 60 66 70 66 72 79 81 78 77 86 86 72 68 56 36 38 60 84 102 99 96 98 95 94 89
344 341 338 337 335 332 328 326 326 319 317 324 330 339 342 341 338 317 298 325 345 349 347 341 343 344 263 285 289 278 2 26 359 356 358 356 354 349 346 356 354 340 331 338 320 290 246 203 223 238 193 190 164 152 154 145 106 108 114 102 87 72 69 70 70 72 71 75 82 84 83 85 87 78 71 71 66 55 56 61 72 99 97 93 93 94 99 96
344 340 338 337 333 332 327 320 319 314 311 320 333 346 344 342 339 309 295 322 331 337 348 341 323 315 240 261 270 275 38 15 347 352 353 350 348 344 346 354 353 346 340 341 339 324 311 297 310 342 354 220 141 123 183 143 111 109 106 95 88 81 70 72 79 84 83 76 85 94 94 76 45 43 82 88 105 98 77 73 70 84 90 92 89 89 94 92
344 340 337 335 332 331 328 319 311 306 306 318 335 349 344 341 335 314 303 318 325 318 335 349 288 270 270 274 271 302 25 3 340 348 347 345 343 338 340 344 348 350 339 334 22 2 333 336 336 328 345 134 111 61 80 115 115 116 105 87 82 84 69 61 81 95 93 87 96 101 99 62 25 48 97 98 111 113 94 83 75 78 83 84 85 83 84 87
343 341 336 335 332 329 328 321 307 300 302 314 335 349 339 333 324 318 322 342 354 332 336 41 267 312 303 292 280 356 3 357 339 344 345 340 332 321 320 324 337 346 335 328 10 10 331 327 330 310 229 135 116 91 107 122 124 122 108 97 92 85 64 40 60 92 98 106 112 105 100 46 26 73 104 104 111 108 103 95 83 85 88 86 89 89 89 103
342 340 336 335 333 329 327 319 304 294 293 306 333 333 312 310 306 318 4 14 14 12 79 128 294 321 310 310 83 355 359 0 337 339 344 340 329 311 301 304 317 327 320 315 328 345 316 311 323 299 254 149 120 115 133 140 133 122 107 113 118 92 58 21 38 97 95 86 4 7 123 68 51 104 101 85 119 117 108 99 92 95 99 100 99 102 113 140
342 340 337 336 334 331 327 318 299 284 282 297 305 280 254 245 267 38 53 35 20 29 61 13 335 305 277 122 90 348 7 2 338 347 348 346 339 319 282 287 303 306 292 289 300 312 292 288 298 285 272 131 122 125 135 148 142 126 116 123 138 128 87 14 33 100 105 77 316 325 135 110 105 124 96 44 76 118 115 105 103 109 118 118 113 118 129 166
343 340 339 338 335 332 328 316 291 278 270 270 245 226 227 229 234 210 103 35 19 37 27 338 344 313 283 125 130 321 2 354 346 353 350 354 344 331 341 325 308 302 281 271 286 296 273 272 278 273 99 121 138 135 134 146 143 147 139 140 161 135 124 78 44 22 107 151 267 302 78 110 131 136 119 85 29 99 113 112 110 111 131 137 137 135 135 193
342 341 340 338 336 333 329 313 283 271 251 226 207 207 220 232 237 234 234 323 3 49 27 329 4 36 20 41 323 311 347 351 348 346 345 359 344 334 340 321 295 286 271 265 277 267 237 254 269 161 117 140 154 138 133 138 142 199 185 147 146 127 130 125 65 352 86 138 247 262 124 112 129 137 134 133 122 94 102 113 119 114 139 145 141 145 160 192
342 342 340 339 337 334 331 309 276 259 226 194 178 167 153 149 131 50 311 241 233 240 1 337 358 84 78 326 320 330 344 346 343 340 333 344 347 338 328 307 271 258 256 248 254 244 211 218 231 153 155 172 159 140 145 151 159 200 201 133 117 121 134 136 111 344 182 139 79 75 103 91 112 135 144 147 147 126 116 127 131 131 182 186 155 164 186 193
343 341 339 340 339 337 332 303 266 240 205 174 158 136 117 93 65 31 1 337 247 255 261 333 343 121 258 336 358 343 336 328 327 333 325 335 355 341 319 303 280 253 233 196 219 222 180 207 218 147 181 193 170 166 164 159 166 177 171 124 109 120 129 128 126 157 188 142 104 90 101 108 122 139 149 148 154 155 139 136 137 144 180 202 181 185 213 213
342 341 340 341 339 338 330 294 252 222 188 170 159 73 296 348 23 40 44 50 47 272 315 343 348 310 306 352 4 339 325 305 308 338 347 349 342 317 288 275 283 254 213 153 181 209 179 183 168 156 181 191 178 187 174 150 157 148 122 113 118 118 110 116 121 146 190 136 113 102 114 134 147 155 161 154 157 166 142 136 150 155 180 218 204 198 217 217
343 342 341 341 340 339 330 282 237 209 182 182 240 326 292 278 288 128 72 57 61 74 76 5 2 355 325 350 344 339 333 282 290 27 17 351 323 310 265 225 255 253 221 148 152 209 207 153 137 153 176 217 209 265 299 154 141 120 106 105 105 103 97 108 120 143 241 100 91 92 107 132 152 165 174 161 164 178 158 153 168 171 185 217 221 212 207 215
343 343 341 341 341 340 331 267 228 205 190 202 319 329 320 349 353 42 66 48 71 81 74 347 325 293 314 338 332 345 355 253 302 54 13 345 316 305 117 188 222 221 178 145 133 184 235 148 98 53 328 283 286 285 291 152 128 112 110 114 99 100 99 99 117 138 270 46 98 102 102 117 147 166 172 163 182 198 175 166 173 186 193 201 224 228 214 217
343 342 341 341 339 341 339 260 223 205 196 214 315 301 347 24 351 5 347 269 143 151 202 264 287 302 255 315 332 341 338 264 32 54 9 354 318 246 122 211 238 159 137 144 138 111 112 98 46 5 313 286 280 278 287 117 118 110 115 117 108 116 106 89 102 135 269 59 127 127 106 110 142 159 167 177 199 210 182 174 173 191 203 200 213 228 226 217
343 343 341 339 340 348 1 261 216 202 194 235 314 309 350 21 21 19 333 278 135 203 228 269 344 17 35 10 339 334 352 5 10 21 3 352 306 275 81 239 202 123 133 153 157 149 113 55 343 310 311 310 281 282 121 113 109 117 131 125 128 144 133 112 129 139 69 64 138 146 117 114 143 146 175 189 197 203 186 187 189 205 221 221 216 220 230 220
343 344 341 338 345 7 32 95 181 183 194 233 314 332 340 11 27 14 340 263 39 214 171 64 23 4 17 349 329 331 8 20 2 356 356 348 332 32 347 263 120 126 154 132 111 92 78 25 310 298 309 305 123 73 83 108 100 99 123 132 144 153 135 124 140 141 84 58 137 153 118 138 163 163 193 186 189 207 189 185 197 215 233 247 247 239 238 228
342 344 342 339 0 47 58 88 133 189 219 225 290 310 309 332 6 6 1 238 352 14 141 104 127 355 351 307 323 329 341 13 13 343 340 351 356 348 302 298 94 124 122 103 94 78 59 354 321 324 332 330 102 71 25 34 118 75 61 138 150 145 123 126 144 147 113 92 185 174 107 207 181 182 189 158 185 214 192 193 203 209 219 231 246 245 241 233
343 346 348 346 46 67 52 73 113 207 216 207 260 270 276 279 332 1 357 230 2 356 317 82 104 8 348 331 318 304 8 358 347 340 332 358 356 245 293 354 46 88 90 93 88 71 4 348 341 321 358 34 84 79 13 356 117 87 39 139 139 130 126 140 153 147 126 136 155 142 126 184 213 204 178 155 188 210 195 207 212 207 210 214 220 226 226 223
343 351 358 359 96 65 33 39 102 166 183 214 239 242 244 239 306 358 328 245 43 346 328 23 60 345 335 334 333 114 82 293 311 2 354 352 337 225 204 39 57 53 49 108 82 38 340 350 360 359 39 60 70 71 341 334 105 104 306 130 128 131 138 151 151 129 117 103 76 248 171 99 274 226 159 153 177 202 202 211 212 205 205 206 214 217 212 208
346 358 1 353 133 74 71 62 25 183 32 312 234 220 225 227 282 326 302 10 27 347 327 16 355 332 319 326 14 97 154 249 320 348 325 333 341 234 69 56 67 47 18 90 112 44 347 358 0 5 40 62 57 268 293 327 88 115 277 125 129 139 146 154 138 113 139 116 83 252 244 63 277 304 124 147 172 217 216 212 207 202 200 202 206 209 205 196
351 359 354 2 85 66 95 110 313 306 343 333 198 195 210 216 268 287 293 334 18 347 278 16 348 331 313 328 46 72 76 29 51 318 312 333 335 347 67 69 78 61 44 70 100 95 26 0 313 353 52 58 311 268 276 339 77 216 184 116 122 136 146 164 134 112 130 110 126 222 305 90 255 299 163 160 209 227 215 206 203 200 197 200 200 194 189 184
355 1 1 90 97 46 72 146 265 298 310 148 161 174 166 203 261 58 44 2 86 322 297 0 342 312 329 17 47 37 44 40 24 1 346 356 7 17 31 82 79 75 66 72 81 117 118 17 281 38 56 325 281 272 257 249 139 160 129 113 120 128 136 168 86 91 94 63 300 288 358 97 210 272 194 187 258 219 192 183 188 191 190 194 194 180 177 179
359 6 14 133 140 143 166 167 228 264 192 150 149 133 91 241 256 81 70 75 55 345 326 359 346 334 4 40 36 11 40 42 5 16 26 15 29 18 2 34 68 82 78 66 69 71 52 35 10 26 51 262 292 323 325 326 77 121 130 125 117 105 88 45 23 33 101 156 271 306 353 86 192 262 208 193 329 11 156 165 164 169 173 177 176 159 161 165
0 11 27 72 187 179 180 152 148 147 143 141 128 95 263 264 13 50 10 316 337 351 354 328 330 337 353 32 35 6 21 38 4 13 34 63 62 36 43 49 334 109 78 53 56 46 35 29 13 319 218 51 10 59 38 353 340 41 141 122 104 110 103 71 37 41 108 237 272 334 335 289 216 252 170 155 107 40 66 92 108 124 131 128 113 94 84 83
0 17 34 37 163 169 143 131 131 124 125 126 112 169 256 21 43 22 344 347 315 302 298 260 305 331 355 16 17 4 15 10 343 356 30 77 73 56 53 37 359 63 96 104 102 60 52 41 9 351 335 15 8 84 84 354 293 195 148 124 112 139 134 138 184 155 95 282 305 335 332 273 241 312 102 124 105 72 74 71 70 78 83 84 82 77 72 68
14 35 51 44 67 108 116 124 125 117 114 109 285 276 42 66 90 178 12 30 245 266 268 255 298 330 42 39 345 359 44 10 357 26 30 31 45 28 25 21 12 30 78 84 79 50 77 87 11 357 318 338 4 67 134 244 259 189 127 113 114 147 141 145 170 144 127 157 339 339 343 170 203 241 96 105 91 77 74 73 71 68 68 73 75 77 89 103
43 54 69 40 45 89 115 123 124 119 113 272 261 12 47 75 105 83 53 61 215 278 272 192 282 318 72 47 332 4 62 17 3 36 40 35 43 20 357 358 1 10 20 45 58 44 81 76 330 293 251 305 355 3 197 328 311 334 15 62 100 202 150 125 145 136 131 122 70 282 270 179 133 71 69 92 97 98 100 98 95 90 93 97 95 103 110 115
57 42 61 10 349 95 116 127 130 104 331 279 309 38 41 73 34 23 31 313 283 335 313 286 283 347 69 39 353 10 30 353 336 49 61 65 64 30 4 347 356 13 37 70 58 150 119 71 311 293 234 284 344 322 335 75 179 323 16 39 234 199 121 113 69 29 104 126 160 205 239 59 70 21 28 122 125 127 133 137 133 131 142 139 127 131 123 113
13 337 59 321 285 133 128 138 149 179 298 297 47 59 91 84 4 11 11 339 76 350 312 319 312 338 61 51 12 357 343 345 339 14 70 82 65 12 350 345 7 43 100 127 67 8 113 103 340 351 34 274 222 5 342 33 121 94 100 192 189 53 82 105 94 26 42 140 204 228 198 172 175 276 246 176 178 178 172 166 149 148 158 147 135 134 124 114
345 293 215 327 296 148 148 142 153 221 263 327 80 93 135 39 8 14 3 335 354 300 302 39 30 315 69 69 10 340 340 358 359 20 52 44 9 327 329 345 358 36 182 169 107 16 77 89 22 347 354 280 6 48 356 356 40 86 138 177 112 80 20 7 106 130 174 161 247 300 304 204 204 192 206 211 204 185 178 172 156 162 167 144 134 130 122 119
320 268 218 38 115 148 152 170 236 248 267 41 88 99 330 34 43 42 14 343 317 295 320 25 127 69 38 28 14 344 354 21 18 26 56 58 1 322 329 340 315 331 327 335 98 130 248 87 62 308 323 311 9 35 10 339 358 30 64 33 46 112 139 148 117 141 150 143 169 351 11 317 263 244 212 203 194 178 174 175 167 171 168 145 141 144 142 148
272 267 110 76 119 140 145 189 266 13 54 45 60 94 245 54 75 67 32 4 317 290 354 347 301 96 60 48 30 354 5 23 21 32 36 51 70 353 3 22 317 321 329 331 57 102 14 65 118 38 353 0 21 27 10 306 340 9 25 18 6 16 72 104 70 78 127 136 124 93 83 268 271 318 355 75 161 169 163 167 177 172 156 142 145 154 154 152
278 223 135 42 177 181 160 60 40 47 87 90 71 99 164 164 90 72 52 47 339 283 340 325 328 56 73 79 41 355 13 23 13 30 43 40 58 30 356 11 332 320 329 338 15 55 42 64 99 94 32 34 53 241 316 17 262 25 48 74 164 306 12 61 12 324 83 109 149 121 115 258 264 335 8 22 33 80 133 157 173 157 136 135 142 151 151 147
261 195 334 328 225 218 292 49 68 37 75 97 41 62 47 81 92 43 38 102 282 270 194 307 332 37 49 61 40 0 38 36 9 17 40 35 35 35 343 335 321 290 317 16 33 23 94 82 74 72 58 76 175 185 78 21 262 255 262 226 231 320 67 90 124 276 3 40 228 131 115 257 264 41 34 22 37 24 20 106 141 129 120 128 136 141 142 143
221 171 6 8 155 196 336 68 83 43 58 76 279 334 358 26 110 76 5 75 306 291 60 312 310 28 23 337 78 20 17 31 12 12 65 72 45 7 337 338 333 296 313 26 1 343 40 80 75 84 191 287 179 176 32 327 252 301 264 264 357 98 138 135 160 166 66 301 186 82 75 266 262 198 143 129 106 31 353 42 113 121 124 136 144 148 143 139
43 90 25 33 87 59 340 104 111 91 97 145 179 91 1 346 82 98 67 58 14 315 351 357 293 354 346 322 356 25 343 46 30 0 58 78 53 281 326 348 352 359 23 71 312 353 43 94 98 103 102 21 0 317 304 281 216 73 111 103 340 193 137 352 24 87 71 221 127 101 211 248 248 207 184 181 176 182 207 213 139 136 149 160 157 159 154 140
38 72 16 40 93 46 334 205 129 122 134 140 125 132 149 79 32 42 91 88 100 309 1 11 325 338 343 332 7 33 7 64 74 313 34 79 99 222 334 355 359 26 56 348 280 309 72 69 75 124 147 159 194 242 234 226 235 222 101 135 246 266 92 91 58 67 248 239 110 142 208 253 283 274 227 204 183 171 178 198 179 150 159 168 161 159 156 146
100 106 5 18 348 51 62 269 111 118 144 150 130 154 165 119 115 229 266 81 190 246 110 14 321 334 343 330 40 49 0 10 78 124 119 98 105 196 260 345 29 82 112 285 293 315 94 72 33 72 126 150 170 198 226 278 234 174 175 201 195 85 71 95 90 127 194 161 219 225 213 274 284 255 218 207 189 175 171 177 190 175 163 164 160 154 153 151
117 156 140 142 312 7 35 58 98 111 162 168 142 144 146 124 129 174 303 328 172 209 73 62 8 358 9 328 60 68 357 13 52 58 69 85 83 117 276 295 100 117 261 260 282 83 97 76 357 38 74 92 90 16 301 318 34 130 4 219 186 167 128 126 159 216 156 106 255 261 237 268 267 238 199 198 193 189 183 181 191 189 173 164 152 146 152 161
124 69 127 138 135 43 355 171 124 102 118 132 122 135 138 141 149 152 237 29 146 224 203 65 296 274 56 49 105 118 76 38 43 33 37 88 126 146 339 316 230 149 303 339 34 74 93 96 267 117 87 42 58 13 299 319 20 336 291 245 212 183 175 185 210 223 181 166 227 249 352 247 253 257 223 199 187 194 198 192 187 175 162 158 151 153 166 175
120 79 107 177 104 123 266 244 118 108 101 102 128 164 156 157 160 138 101 113 179 228 179 90 220 155 91 75 51 137 158 99 59 291 228 109 101 134 107 334 321 282 311 359 10 59 107 110 253 145 115 306 310 304 282 62 10 295 259 239 231 211 203 210 231 235 219 235 253 279 301 273 254 243 255 254 207 179 171 161 161 161 163 164 163 171 182 187
117 83 140 112 93 112 270 276 126 127 111 53 99 185 171 159 156 159 82 126 153 185 176 157 145 124 104 74 66 105 184 167 114 188 174 110 91 323 112 113 26 1 335 2 345 301 104 106 269 100 79 313 307 301 309 67 42 277 269 258 240 230 229 233 245 248 238 262 271 286 293 282 259 214 234 247 178 125 112 151 169 173 169 167 172 181 187 191
316 16 102 107 101 119 135 335 170 157 156 212 188 184 187 171 159 142 97 46 90 132 167 159 142 132 106 72 80 119 209 37 100 129 44 108 144 207 177 42 74 109 330 356 340 318 83 109 258 57 54 293 291 321 339 19 26 285 274 258 225 211 216 219 216 202 192 216 235 235 266 270 252 176 183 203 152 165 207 205 199 199 180 172 181 188 189 190
235 248 194 117 90 179 169 161 291 230 175 179 136 149 194 170 147 133 110 48 73 79 30 47 141 138 123 103 109 169 169 116 133 196 38 107 114 110 103 70 64 82 118 124 11 7 95 126 164 101 101 275 295 329 335 356 3 295 264 234 204 198 201 203 213 209 199 186 174 205 233 238 205 163 165 188 194 208 223 216 208 207 191 185 191 192 191 192
Height
829 828 827 826 825 824 824 823 822 822 821 820 820 819 818 817 816 815 814 813 812 811 811 810 810 810 810 809 809 808 808 806 805 805 806 807 807 806 805 804 803 802 801 800 799 799 798 797 797 796 797 797 797 796 795 796 794 799 806 813 816 813 808 803 804 810 813 817 820 819 821 828 834 833 831 832 837 842 846 851 854 854 855 858 860 863 865 868
829 828 827 826 825 824 823 823 822 821 821 820 819 818 817 816 816 814 814 813 812 811 810 809 809 810 809 809 809 808 808 807 805 805 807 808 806 806 805 804 803 802 801 800 800 799 798 797 797 797 797 798 797 797 797 796 796 801 806 812 814 808 805 802 803 805 808 815 819 820 823 827 832 832 830 837 844 845 850 856 858 859 862 863 863 865 868 869
829 828 827 826 825 824 823 822 822 821 820 820 818 818 817 816 815 814 813 812 811 810 809 809 809 809 809 809 809 808 808 807 805 806 807 807 806 805 804 803 802 801 801 801 801 800 800 798 798 797 797 798 797 798 799 798 799 800 802 812 812 806 805 802 803 804 806 812 818 823 824 828 831 829 831 840 846 848 853 858 860 863 865 865 866 868 870 871
829 828 827 825 825 823 823 822 821 820 820 819 818 817 817 816 815 814 813 812 811 810 809 808 808 808 809 808 808 808 807 807 806 806 808 806 806 805 804 803 802 801 801 801 801 800 800 799 798 798 797 798 797 797 799 799 799 799 804 813 811 805 807 803 800 803 807 811 817 823 826 831 831 830 834 840 848 854 854 855 859 864 865 866 867 869 871 872
829 828 827 825 824 823 822 822 821 820 819 819 818 817 816 815 814 814 812 812 811 809 809 808 808 808 808 808 808 808 808 809 807 806 807 806 805 805 803 803 802 801 801 801 801 800 800 799 798 798 798 798 798 799 800 797 797 804 810 812 808 806 811 808 801 805 809 812 817 824 830 832 833 838 840 841 853 859 855 855 859 863 865 866 868 870 872 873
829 828 826 825 824 823 822 821 820 819 819 818 817 816 816 815 814 813 812 811 810 809 809 808 808 808 808 808 807 808 809 809 807 806 807 805 805 804 803 803 802 801 801 801 800 799 800 798 798 799 798 797 799 798 798 796 796 810 817 813 810 808 813 812 805 807 810 813 821 826 830 833 840 849 848 848 859 862 857 857 859 863 865 867 869 871 873 875
829 827 826 825 823 823 821 821 820 819 818 818 817 816 815 814 813 813 812 811 810 809 809 808 808 808 808 808 807 807 807 807 807 807 806 805 805 804 803 802 802 802 801 800 799 798 799 798 799 797 796 798 799 796 795 796 797 810 821 818 815 813 815 816 810 810 812 817 824 826 832 839 846 853 853 857 863 863 861 860 861 864 866 868 871 873 874 876
828 827 825 824 823 822 821 820 819 818 818 817 816 815 815 814 813 813 812 811 810 809 809 808 808 808 808 808 808 806 805 807 807 807 806 804 805 804 803 802 802 802 800 800 798 798 798 798 798 794 796 796 795 795 793 798 804 811 820 821 820 819 820 819 816 817 819 825 828 831 840 847 849 853 858 864 865 864 864 863 863 866 868 870 873 875 876 877
828 826 825 824 823 821 820 819 819 818 817 816 816 815 815 814 813 812 812 811 810 810 809 808 808 808 808 808 808 807 806 807 807 807 806 805 804 803 803 802 802 801 800 800 798 798 797 797 797 793 796 794 792 796 793 800 811 813 818 821 822 824 824 823 822 823 827 831 833 839 848 852 850 853 863 869 868 868 866 866 867 868 870 872 874 876 877 878
827 826 825 823 822 821 820 819 818 817 816 816 815 815 814 814 813 812 812 811 810 810 809 808 808 808 808 808 808 809 808 807 807 807 806 805 804 803 803 803 803 802 800 800 799 799 798 797 796 793 795 793 792 798 795 801 811 812 816 822 824 827 828 827 828 828 831 835 837 843 851 854 850 853 868 872 869 869 869 869 870 871 872 874 875 876 877 879
827 825 824 823 822 821 819 818 817 817 816 815 815 814 814 813 813 812 812 811 810 810 809 808 808 808 808 808 808 809 808 807 807 806 806 805 804 804 803 803 803 802 801 800 799 800 799 798 796 795 795 792 795 801 800 802 809 812 815 824 829 830 832 831 832 832 833 840 841 843 850 853 854 860 871 873 870 871 872 872 873 874 875 875 876 877 878 879
826 825 824 822 821 820 819 818 817 816 816 815 815 814 814 813 813 812 812 811 810 809 809 809 808 808 808 808 808 809 808 807 807 806 806 805 804 804 803 803 803 802 802 800 800 799 799 798 797 798 794 790 798 805 807 805 807 811 812 825 836 832 836 839 836 835 836 842 842 841 848 856 863 870 874 872 872 872 873 875 876 876 877 876 877 877 878 880
826 825 823 822 821 819 818 817 816 816 815 815 814 814 814 813 813 812 812 811 810 810 809 809 809 809 809 809 808 808 807 807 807 806 806 805 804 803 803 803 803 802 802 801 801 800 799 798 798 799 792 791 800 802 805 805 805 812 812 823 835 835 842 844 839 838 840 844 843 842 850 862 871 874 873 872 871 872 873 875 877 877 878 878 878 878 879 880
826 824 823 821 820 819 818 817 816 815 815 814 814 814 814 813 813 813 812 811 811 810 810 809 809 809 809 809 808 808 807 807 807 806 806 805 804 803 802 803 803 802 802 801 801 800 799 799 798 799 792 793 798 798 805 808 807 814 818 822 828 835 847 847 842 843 844 846 843 843 851 864 872 873 873 873 871 871 872 874 877 878 878 879 879 878 879 879
825 824 822 821 819 818 817 816 815 815 815 814 814 814 814 813 813 812 812 811 811 811 810 809 809 808 808 809 808 808 807 806 807 806 806 805 804 803 802 803 803 802 802 801 800 800 799 799 799 798 794 793 797 802 809 812 811 814 820 827 826 833 849 849 845 845 845 847 843 844 854 864 870 872 873 873 873 871 872 874 876 878 878 878 878 878 879 879
824 823 821 820 819 818 816 815 815 815 814 814 814 814 814 813 813 812 812 811 811 811 810 809 809 809 811 810 808 808 808 807 807 807 806 805 805 804 803 803 802 802 802 801 801 800 799 800 798 795 796 798 799 804 811 816 819 816 816 826 829 836 850 850 848 846 843 845 843 843 855 864 867 871 873 872 873 873 873 876 876 878 878 877 878 877 878 878
824 822 821 819 818 817 816 815 815 814 814 814 814 814 814 813 812 812 811 810 811 811 810 810 808 809 811 810 809 809 808 808 807 806 806 805 805 804 804 803 802 802 801 800 801 800 800 800 797 796 798 799 798 802 813 822 825 821 815 821 831 838 845 848 850 848 842 844 846 846 855 864 866 870 873 872 872 873 874 876 876 877 878 877 877 877 877 877
823 822 820 819 817 817 815 815 814 814 815 815 815 815 814 814 812 812 811 810 810 809 810 810 808 812 814 810 810 811 809 808 807 806 805 805 805 804 804 803 802 802 801 801 801 800 800 799 798 802 803 800 799 802 812 818 817 817 816 824 835 838 841 847 850 848 843 844 849 853 861 867 868 869 872 872 872 873 874 875 876 876 877 876 876 876 877 875
823 821 820 818 817 816 815 815 814 814 815 815 815 815 814 814 813 812 812 811 811 813 815 814 812 817 818 812 811 811 809 808 807 806 805 805 805 804 804 803 802 802 802 802 803 800 799 801 802 807 807 803 800 799 802 803 805 810 816 825 834 838 843 846 847 847 844 845 849 853 861 868 870 870 871 872 872 872 873 875 876 875 876 876 875 875 876 875
822 821 819 818 817 816 815 814 814 814 815 816 815 815 815 814 813 813 812 812 814 815 817 817 815 816 815 812 812 811 808 807 806 806 806 805 805 804 803 803 803 803 802 801 803 799 796 803 808 808 809 805 802 801 798 794 799 809 818 827 834 840 847 847 846 846 843 846 853 854 860 868 870 871 871 871 873 872 872 873 875 875 876 876 874 874 874 874
821 820 819 817 817 816 815 814 815 815 816 816 816 816 815 814 814 815 814 815 816 815 816 816 815 815 814 813 813 811 810 809 806 806 806 805 804 805 804 804 805 804 800 799 801 799 797 806 811 810 811 810 808 805 797 793 800 811 820 829 837 843 847 847 846 845 842 848 857 857 861 867 868 870 871 872 874 872 871 872 873 874 874 874 874 872 872 872
821 820 818 817 816 815 815 815 815 815 816 817 817 816 815 816 817 816 816 816 816 815 815 815 814 814 814 813 813 812 812 811 807 806 806 805 805 805 805 805 804 801 798 798 802 804 806 812 813 811 810 809 806 800 795 797 804 814 821 830 839 843 846 849 847 845 843 849 857 857 861 867 867 868 870 871 873 872 870 870 871 872 872 872 872 871 870 870
821 819 818 817 816 815 815 814 815 816 817 817 817 817 817 817 816 816 816 815 816 816 815 814 815 815 814 814 813 812 812 812 810 808 806 806 805 804 805 805 802 799 799 800 803 808 813 817 815 811 809 806 801 796 795 801 807 815 821 829 840 841 842 850 851 847 843 846 853 855 860 866 866 867 870 870 870 870 870 870 870 870 870 870 869 870 869 868
820 818 818 816 815 816 815 815 816 817 817 818 818 818 818 818 816 816 816 813 814 815 814 814 815 815 815 814 813 812 811 811 811 810 808 808 806 805 805 803 799 801 802 802 804 811 816 818 815 810 807 803 799 799 804 809 814 818 818 826 838 837 837 845 848 846 845 847 849 851 858 863 864 867 868 868 869 869 869 869 869 869 869 869 868 869 868 866
820 818 817 816 816 816 815 816 817 817 818 818 818 819 818 818 817 816 816 815 816 816 813 814 815 815 815 814 813 813 812 811 811 811 809 808 808 807 804 800 800 803 804 804 808 815 818 816 814 809 805 802 802 809 816 817 816 820 820 822 830 832 835 842 843 843 849 854 851 850 856 859 861 863 863 866 870 869 867 866 867 867 868 869 869 868 867 865
819 818 816 816 816 815 816 817 817 818 818 818 819 818 818 819 817 817 818 817 819 818 814 814 817 817 815 813 812 811 814 814 811 810 809 808 809 808 806 802 802 805 807 807 811 819 822 817 812 809 806 806 806 813 823 819 815 823 824 820 824 830 836 841 840 841 849 853 849 848 854 857 858 859 858 863 869 867 866 865 864 865 865 867 867 867 865 863
819 818 817 817 816 816 816 816 817 818 817 818 819 817 819 819 817 819 819 821 823 820 815 816 819 819 815 812 810 813 820 818 811 809 808 808 808 807 808 806 805 808 807 807 816 828 830 821 815 810 807 810 813 819 827 821 818 826 823 819 826 831 836 838 835 840 847 850 850 847 849 853 853 853 853 858 864 863 863 863 861 861 862 863 864 863 862 860
819 817 817 817 816 817 816 817 818 817 817 819 817 818 820 818 819 820 821 829 831 821 817 818 817 817 815 812 810 813 819 817 815 813 808 807 808 805 808 810 812 814 807 807 825 838 835 830 827 820 815 820 827 829 830 822 820 825 820 819 827 830 833 834 833 840 844 848 856 852 847 851 851 853 855 855 858 859 857 857 857 857 857 858 858 858 857 857
818 817 817 816 817 817 817 817 818 817 818 818 817 819 818 818 821 820 822 831 830 821 820 819 817 817 816 813 813 814 815 814 816 815 808 808 809 806 810 812 812 816 814 815 830 839 837 837 836 830 827 832 834 831 828 823 820 821 818 819 825 828 830 831 831 839 841 846 859 856 849 851 851 854 858 855 854 853 849 849 850 850 851 852 853 853 854 855
818 817 817 817 817 817 817 818 817 818 818 817 819 819 818 822 821 821 832 836 828 824 822 819 820 821 818 817 817 816 816 816 815 814 811 810 809 807 810 810 810 817 822 823 832 837 836 837 836 835 837 838 836 830 825 823 818 817 819 822 827 829 830 831 831 836 844 853 861 858 851 851 851 851 853 851 847 842 840 842 844 845 847 848 849 850 851 853
819 817 817 817 817 817 817 817 817 818 818 818 819 818 820 823 818 825 838 832 825 827 826 824 825 822 819 822 824 821 819 819 817 816 816 814 813 814 814 814 815 820 825 828 833 834 833 835 836 837 839 838 835 829 825 821 817 818 821 825 832 836 835 838 839 840 851 860 861 858 854 853 852 848 845 843 840 836 835 837 839 841 844 846 847 848 850 851
819 818 817 817 817 817 816 817 818 818 818 819 819 820 822 820 821 831 834 826 829 836 834 833 831 824 821 823 826 826 823 822 820 819 820 819 822 825 824 827 827 826 832 835 834 835 836 837 838 837 837 837 835 831 830 827 823 823 823 827 840 848 849 853 853 851 857 864 862 857 855 855 850 841 837 839 839 838 836 836 839 841 843 846 848 850 851 852
819 818 818 817 817 817 817 817 818 818 819 819 819 822 821 821 831 839 834 830 836 839 837 837 833 827 824 825 829 829 827 826 821 818 820 820 823 826 826 830 829 824 829 835 834 838 841 838 838 838 836 836 837 835 836 834 830 827 826 829 841 849 855 862 859 853 860 866 862 857 856 854 847 839 837 839 841 841 840 841 842 843 845 848 851 852 854 855
819 818 818 819 818 817 817 818 818 819 819 819 820 821 819 826 837 838 835 838 840 840 837 837 836 830 826 829 831 828 828 829 824 821 822 823 828 832 831 833 833 826 826 831 834 839 844 843 844 845 841 839 839 837 840 838 831 828 827 827 834 840 846 854 852 851 862 867 863 862 858 848 843 843 841 841 843 843 844 845 846 847 849 851 853 854 855 856
820 819 819 819 818 818 818 818 819 819 819 820 821 819 819 827 832 831 836 840 839 839 836 835 837 832 827 830 829 827 831 830 826 828 831 834 839 843 842 841 842 837 830 832 837 841 848 851 848 846 844 843 842 839 840 838 831 829 827 826 833 838 840 847 852 853 858 861 862 861 853 843 842 846 845 844 845 846 847 848 849 851 852 853 854 856 856 857
820 820 820 820 819 819 818 819 820 819 820 821 818 820 829 836 836 836 840 841 839 840 838 836 837 832 828 831 828 826 829 829 827 830 836 841 844 847 847 846 847 846 840 836 837 840 849 855 849 843 844 842 842 841 839 838 835 831 831 833 840 843 840 845 852 853 849 849 854 852 846 845 847 846 847 847 848 849 849 850 851 852 853 855 856 857 858 859
820 820 821 820 820 819 819 819 819 819 820 819 818 828 842 846 845 845 846 844 843 845 840 834 836 835 832 832 832 828 828 828 826 828 835 839 843 850 850 846 846 849 850 845 839 836 843 852 848 843 844 841 840 842 838 837 837 834 834 839 842 843 840 839 845 851 848 846 850 848 843 846 846 845 849 850 849 851 851 849 851 852 853 855 857 858 859 860
821 821 821 821 819 820 820 819 819 820 820 820 825 838 848 849 849 851 851 849 848 848 840 834 836 836 831 832 836 834 831 830 826 830 837 837 843 852 851 848 846 844 850 850 842 835 839 850 851 844 843 842 839 840 838 837 837 835 838 840 839 841 840 837 840 849 848 844 848 848 845 843 840 842 850 850 848 850 850 849 850 852 853 855 857 858 859 860
821 821 820 821 820 819 819 819 820 819 818 819 824 836 849 853 851 854 855 853 853 849 839 835 836 836 834 836 839 836 833 832 829 831 837 838 846 852 851 852 848 843 846 846 840 837 835 844 853 847 841 841 841 844 848 847 841 837 838 840 839 841 844 843 844 847 845 840 843 847 848 844 840 841 843 843 844 846 847 849 849 850 852 854 857 859 860 861
821 820 820 820 820 820 820 819 819 819 823 829 833 841 854 856 852 855 856 854 855 850 839 835 835 835 838 841 842 839 834 833 832 833 837 841 848 853 855 858 853 847 847 843 840 839 832 836 850 850 842 844 851 859 864 863 855 846 842 843 844 845 847 848 850 853 850 843 840 844 848 845 842 844 842 839 841 842 843 847 847 848 850 852 856 858 859 861
820 820 819 820 820 820 820 820 822 824 830 840 844 850 856 853 852 856 856 856 857 853 849 844 837 836 839 840 841 840 837 836 837 837 840 844 848 852 857 862 860 856 849 839 837 841 835 836 848 852 848 852 862 872 876 875 871 864 857 853 854 852 848 846 852 858 858 854 849 847 848 844 842 847 846 842 843 842 842 845 845 846 849 852 856 857 858 860
820 819 819 820 820 820 820 822 827 829 833 843 849 853 853 850 852 856 856 857 856 853 853 849 841 839 841 841 842 840 840 843 844 843 843 848 854 857 859 862 862 861 853 839 837 844 841 840 849 857 860 864 870 877 880 880 880 876 868 861 856 854 851 849 851 855 857 863 862 853 848 845 844 848 848 847 847 846 845 845 844 847 851 853 855 857 858 860
818 818 819 820 819 821 821 821 829 838 847 854 856 855 853 851 853 857 856 855 854 851 850 849 847 846 843 844 843 840 841 846 848 847 845 849 858 863 863 861 859 859 854 841 839 845 843 843 853 861 861 864 872 878 881 883 879 868 863 862 857 853 854 853 853 853 854 858 856 849 847 845 844 848 849 849 851 849 847 846 846 849 852 854 856 856 857 859
817 818 820 820 820 822 820 817 826 841 853 856 854 854 855 853 853 854 854 855 854 852 849 848 851 849 847 847 844 841 844 844 846 849 846 848 858 862 862 861 860 858 855 850 849 849 845 844 850 856 859 861 863 864 865 869 867 856 855 862 859 855 855 854 854 853 851 853 852 847 845 842 843 849 850 850 852 850 848 847 847 849 852 854 855 856 857 859
817 818 820 821 821 821 821 819 823 836 847 849 850 851 851 853 855 853 853 855 856 856 853 851 852 851 850 849 845 844 845 843 844 848 847 851 859 862 862 861 860 860 861 862 860 854 851 853 852 851 854 857 856 854 856 859 857 853 857 860 858 857 856 852 853 852 850 854 855 847 843 841 843 847 848 848 849 848 848 848 847 849 851 853 854 855 857 858
817 817 819 821 821 821 823 823 822 830 839 840 841 844 846 849 854 855 854 854 855 855 853 853 853 850 849 848 845 845 845 842 843 844 845 851 857 860 862 861 860 861 862 862 861 856 855 865 870 860 851 853 858 863 871 870 857 851 857 859 858 860 858 854 855 852 849 854 853 844 841 841 840 841 843 845 845 845 847 848 848 849 850 852 853 855 856 858
817 815 816 818 820 820 821 823 823 826 829 828 831 839 843 846 851 853 854 854 854 854 854 855 854 849 846 846 844 844 846 843 842 844 846 851 857 860 861 861 860 861 861 859 859 853 845 857 878 877 868 872 874 875 882 877 861 855 858 859 859 860 860 857 854 850 849 852 849 843 843 842 837 835 837 840 842 842 843 845 847 847 849 851 852 854 856 857
817 816 819 820 818 819 820 820 822 824 824 826 832 839 840 843 846 847 851 854 855 854 851 850 850 849 849 849 845 843 845 844 844 850 850 850 855 857 857 859 859 860 860 857 855 853 845 855 877 878 874 882 883 880 881 876 868 868 865 860 860 861 860 856 852 850 850 849 845 844 847 845 839 836 834 834 836 837 838 840 842 844 847 849 851 853 855 856
819 818 823 823 820 824 826 822 823 824 824 828 834 836 836 838 840 842 847 851 852 853 850 843 845 849 850 851 846 842 844 844 844 849 850 848 851 851 849 852 855 859 860 853 855 857 849 858 882 880 868 875 883 881 880 876 871 867 864 863 863 860 860 857 853 851 853 851 847 849 853 848 841 839 837 833 833 834 835 836 838 841 844 847 849 852 853 854
819 818 821 821 822 827 829 825 824 823 824 827 829 831 832 833 836 841 845 846 844 848 850 844 846 851 851 849 847 845 850 852 848 848 849 846 848 849 846 845 849 857 858 852 855 856 847 860 888 881 856 862 880 883 880 882 878 865 862 867 866 861 862 863 860 857 856 854 851 852 856 848 837 835 835 833 834 835 835 836 837 839 842 844 847 849 850 851
819 819 819 819 820 825 826 825 823 820 820 823 824 828 831 828 832 839 846 850 847 846 849 846 845 850 852 849 849 852 857 859 855 855 854 849 849 852 851 849 850 852 854 853 853 851 849 866 885 873 850 852 874 883 880 882 883 870 859 859 862 862 859 857 858 857 853 850 850 853 852 841 830 829 831 833 835 835 835 837 838 839 841 842 844 845 847 848
819 819 820 818 819 824 825 823 823 818 817 821 823 828 830 827 831 834 837 848 854 852 853 851 845 846 848 847 850 855 859 860 859 859 857 854 854 856 856 856 855 852 851 853 853 851 855 861 863 858 850 850 867 883 880 869 860 847 836 836 845 853 852 850 852 852 847 845 846 845 837 828 827 829 829 831 835 835 835 836 836 837 838 840 841 842 843 844